Location: Newark
(10.2350°N, 77.4860°E)
Time: 17:02:59
(UTC+00:00)

ISS - Visible Passes

Search period start: 20 October 2019 00:00
Search period end: 30 October 2019 00:00
Orbit: 411 x 421 km, 51.6° (Epoch: 20 October)

Date Brightness Start Highest point End Pass type
(mag) Time Alt. Az. Time Alt. Az. Time Alt. Az.
20 Oct -2.9 00:02:58 10° SSW 00:06:16 54° SE 00:09:33 10° NE visible
20 Oct -1.3 23:15:04 10° S 23:17:46 22° SE 23:20:28 10° ENE visible
22 Oct -2.7 00:02:51 10° WSW 00:05:45 27° NW 00:08:39 10° N visible
22 Oct -3.0 23:18:06 43° NNE 23:18:06 43° NNE 23:20:31 10° NNE visible
